Showing default

GAOFEN 1-03, 43260

Orbit data source: Space-Track

GAOFEN 1-03, 43260 is a payload satellite owned by GGKGJ (CN) in SSO that was launched on Sat, 31 Mar 2018 UTC via a CHANG ZHENG 4C launch vehicle from the Taiyaun Space Center, China (TSC). Payloads include a variety of satellites, spacecraft, and rockets equipped with specific instruments for various scientific and technological missions. These include communications satellites like Starlink; space stations such as the ISS; scientific satellites like the Hubble; Earth observation satellites from companies like Planet Labs, Umbra, and HawkEye 360; GPS; miniature CubeSats for education and research; and military/defense satellites.

Loading next visibility...
GAOFEN 1-03 details
Identifier
43260, 2018-031B
Orbit
SSO
Last TLE update9 hours ago
Origin
Flag of CNGGKGJ (CN / PRC)
ManufacturerDFH
MissionOperational Civil Imaging
Bus & MotorCAST-2000, AOCS
Mass805 kg wet, ~700 kg dry
Launch date (UTC)
2018-03-31 (7 years ago)
Launch vehicle
CHANG ZHENG 4C
Launch site
Taiyaun Space Center, China (TSC)
Object type
Payload
Rocket body
Debris
Shape & HBRBox + 2 Pan, 4 m
Radar Cross Section4.991 m², Large (>1 m²)

Expand to show TLE details & history

TLE from 9 hours ago
0 GAOFEN 1-03
1 43260U 18031B   24361.13189263  .00001994  00000-0  29262-3 0  9994
2 43260  97.7981  62.2682 0004685 342.4621  17.6427 14.76603295363292
Epoch: 2024-12-26T03:09Z
Definitive object data (Epoch: 2024-12-26T03:09:55.523Z)
Latitude
Longitude-80.32883°
Altitude639.952 km
Speed7.54 km/s
True Right ascension04h 09m 04s
True Declination0° 00' 00"
Sunlit
Object was in full shadow at TLE epoch
Visualization TLE readout
Latitude81.06598°
Longitude160.06377°
Altitude654.793 km
Speed7.536 km/s
Apparent Right ascension22h 34m 35s
Apparent Declination26° 26' 09"
Sunlit
Object is in daylight
Visualization observer readout
Local Sidereal Time11:04:47
Azimuth7.359° NNE
Elevation-23.276°
Doppler factor1
Orbital elements
Apogee altitude640.394 km
Perigee altitude633.821 km
Semi-major axis7,015.244 km
Eccentricity0.0004685
Inclination97.7981°
RAAN62.2682°
Arg. of periapsis342.4621°
True anomaly17.65898°
Mean anomaly17.6427°
Eccentric anomaly17.65084°
Mean motion3.69385 °/min
BSTAR0.00029262
Orbital period97.46 mins
Loading maneuver chart data...
Loading historical data...
Loading historical data...
Loading historical data...
Loading historical data...
Loading historical data...
Loading historical data...
Loading historical data...

GAOFEN 1-03 Visibility forecast

Observer location: undefined°, undefined

Span
Click to sort rows by Start time (UTC) header in descending order
Start Az.
Max El. time (UTC)
Max El. Az.
Max El.
End time (UTC)
End Az.
7 mins2024-12-26 16:45:23.479Z30.738° NE2024-12-26 16:48:23.479Z88.12° E34.934°2024-12-26 16:52:23.479Z169.794° S
4 mins2024-12-26 18:23:23.479Z317.022° NNW2024-12-26 18:24:23.479Z301.396° NW15.924°2024-12-26 18:27:23.479Z257.232° W
6 mins2024-12-27 03:42:23.479Z125.783° SE2024-12-27 03:45:23.479Z61.262° ENE29.133°2024-12-27 03:48:23.479Z10.472° NNE
4 mins2024-12-27 05:20:23.479Z243.174° WSW2024-12-27 05:21:23.479Z261.086° W18.985°2024-12-27 05:24:23.479Z309.045° NW
|